GW0848 Weather Reports


time (UTC)temp
C
wind
direction
speed
KPH
gust
KPH
rain 1hr
cm
rain 24hr
cm
rain mn
cm
humidity
%
barometer
mb
20260507104543 8 290 9.7 19.3 0.00 0.53 0.08 87 1004.8
20260507103039 8 258 4.8 12.9 0.00 0.53 0.08 89 1005.0
20260507101541 8 267 1.6 14.5 0.00 0.53 0.08 90 1004.8
20260507100045 8 269 4.8 14.5 0.00 0.53 0.08 90 1004.5
20260507094527 8 129 3.2 11.3 0.03 0.53 0.08 91 1004.4
20260507093024 8 297 6.4 20.9 0.03 0.53 0.08 91 1004.3
20260507091520 8 288 9.7 17.7 0.03 0.53 0.08 91 1004.2
20260507090018 8 285 4.8 11.3 0.03 0.53 0.08 91 1004.4
20260507084512 8 272 1.6 6.4 0.00 0.51 0.05 90 1005.0
20260507083012 8 268 3.2 11.3 0.00 0.51 0.05 90 1004.9
20260507081505 8 265 3.2 8.0 0.03 0.51 0.05 89 1004.9
20260507080104 8 256 4.8 11.3 0.05 0.51 0.05 89 1004.6
20260507074627 8 287 1.6 9.7 0.05 0.51 0.05 89 1004.6
20260507073102 8 281 6.4 16.1 0.05 0.51 0.05 87 1004.8
20260507071552 9 300 4.8 11.3 0.03 0.48 0.03 84 1004.3
20260507070048 10 290 9.7 16.1 0.00 0.46 0.00 80 1004.2
20260507064545 10 261 4.8 16.1 0.00 0.46 0.00 79 1004.0
20260507063047 10 53 1.6 6.4 0.00 0.46 0.00 82 1003.9
20260507061537 10 275 0.0 6.4 0.00 0.46 0.00 85 1004.1
20260507060033 10 277 3.2 12.9 0.00 0.46 0.00 85 1004.3
20260507054529 10 287 4.8 12.9 0.00 0.46 0.00 85 1004.0
20260507053020 11 288 1.6 14.5 0.00 0.46 0.00 86 1004.3
20260507051517 11 281 3.2 12.9 0.00 0.46 0.00 87 1004.5
20260507050014 11 87 6.4 17.7 0.00 0.46 0.00 89 1004.4
20260507044509 12 282 4.8 14.5 0.00 0.46 0.00 90 1004.2
20260507043005 12 293 3.2 8.0 0.00 0.46 0.00 90 1004.3
20260507041503 12 253 0.0 6.4 0.00 0.46 0.00 90 1004.1
20260507034558 12 240 3.2 14.5 0.03 0.46 0.46 90 1004.4
20260507033055 13 243 6.4 19.3 0.03 0.46 0.46 88 1004.2
20260507031551 14 269 8.0 22.5 0.03 0.46 0.46 87 1003.9
20260507030047 15 269 4.8 12.9 0.00 0.43 0.43 90 1003.5
20260507024549 15 301 6.4 20.9 0.00 0.43 0.43 91 1003.4
20260507023041 15 216 6.4 20.9 0.00 0.43 0.43 94 1003.5
20260507021534 14 188 6.4 12.9 0.00 0.43 0.43 95 1003.0
20260507020028 14 210 4.8 11.3 0.00 0.43 0.43 95 1003.1
20260507014537 14 201 3.2 9.7 0.00 0.43 0.43 95 1003.0
20260507013024 14 188 4.8 12.9 0.00 0.43 0.43 95 1003.1
20260507011519 14 191 6.4 17.7 0.00 0.43 0.43 95 1002.7
20260507010012 14 170 8.0 17.7 0.00 0.43 0.43 95 1003.3
20260507004520 14 169 8.0 20.9 0.00 0.43 0.43 95 1003.2
20260507003004 14 158 9.7 20.9 0.00 0.43 0.43 95 1003.2
20260507001501 14 91 9.7 20.9 0.00 0.43 0.43 94 1002.9
20260507000101 14 213 8.0 20.9 0.00 0.43 0.43 94 1002.9
20260506234601 14 146 11.3 24.1 0.03 0.43 0.43 94 1002.7
20260506233054 14 198 9.7 19.3 0.08 0.43 0.43 95 1002.7
20260506231555 14 208 9.7 19.3 0.13 0.43 0.43 94 1002.8
20260506230054 14 231 12.9 22.5 0.13 0.43 0.43 94 1002.6
20260506224540 14 165 9.7 19.3 0.10 0.41 0.41 94 1002.6
20260506223047 14 176 9.7 22.5 0.03 0.33 0.33 94 1002.8
20260506221531 14 195 6.4 16.1 0.03 0.30 0.30 94 1002.8
20260506220028 14 223 8.0 20.9 0.03 0.30 0.30 94 1003.0
20260506214523 14 158 6.4 16.1 0.03 0.30 0.30 94 1003.0
20260506213020 14 162 11.3 24.1 0.03 0.30 0.30 93 1003.1
20260506211516 15 167 6.4 20.9 0.00 0.28 0.28 92 1003.3
20260506210014 15 163 8.0 24.1 0.00 0.28 0.28 91 1003.4
20260506204509 15 191 8.0 25.7 0.03 0.28 0.28 91 1003.5
20260506203005 15 185 9.7 30.6 0.03 0.28 0.28 91 1003.6
20260506201503 15 226 8.0 30.6 0.05 0.28 0.28 91 1003.6
20260506200104 15 171 12.9 33.8 0.10 0.28 0.28 91 1003.6
20260506194614 15 201 12.9 27.4 0.10 0.25 0.25 91 1003.8
20260506193054 15 203 12.9 27.4 0.18 0.25 0.25 90 1003.8
20260506191551 15 191 14.5 33.8 0.20 0.23 0.23 89 1004.0
20260506190046 15 160 9.7 24.1 0.18 0.18 0.18 88 1004.1
20260506184542 16 154 8.0 22.5 0.15 0.15 0.15 87 1003.9
20260506183055 16 168 8.0 25.7 0.08 0.08 0.08 83 1004.2
20260506181537 17 214 17.7 32.2 0.03 0.03 0.03 80 1004.5
20260506180035 17 225 14.5 35.4 0.00 0.00 0.00 76 1004.5
20260506174527 18 214 19.3 49.9 0.00 0.00 0.00 71 1004.6
20260506173024 20 211 17.7 46.7 0.00 0.00 0.00 66 1004.7
20260506171526 21 192 24.1 46.7 0.00 0.00 0.00 62 1004.3
20260506170015 21 203 14.5 45.1 0.00 0.00 0.00 62 1004.4
20260506164512 21 205 14.5 29.0 0.00 0.00 0.00 60 1004.6
20260506163008 21 196 9.7 32.2 0.00 0.00 0.00 61 1004.6
20260506161503 21 195 14.5 32.2 0.00 0.00 0.00 61 1004.9
20260506160115 21 210 12.9 46.7 0.00 0.00 0.00 62 1005.1
20260506154604 20 200 17.7 38.6 0.00 0.00 0.00 63 1005.3
20260506153051 20 136 6.4 29.0 0.00 0.00 0.00 65 1005.6
20260506151548 20 245 17.7 33.8 0.00 0.00 0.00 64 1005.7
20260506150044 20 199 8.0 35.4 0.00 0.00 0.00 65 1005.8
20260506144553 20 214 12.9 27.4 0.00 0.00 0.00 67 1005.9
20260506143037 19 177 9.7 20.9 0.00 0.00 0.00 70 1006.2
20260506141533 18 205 8.0 24.1 0.00 0.00 0.00 72 1006.0
20260506140028 18 201 12.9 24.1 0.00 0.00 0.00 73 1005.9
20260506134525 18 215 8.0 27.4 0.00 0.00 0.00 74 1005.9
20260506133020 17 196 6.4 22.5 0.00 0.00 0.00 76 1006.0
20260506131515 17 198 11.3 25.7 0.00 0.00 0.00 78 1006.4
20260506130013 16 191 14.5 24.1 0.00 0.00 0.00 80 1006.6
20260506124506 16 222 11.3 27.4 0.00 0.00 0.00 80 1006.6
20260506123104 16 196 6.4 17.7 0.00 0.00 0.00 80 1006.5
20260506121600 15 203 9.7 24.1 0.00 0.00 0.00 82 1006.8
20260506120057 15 212 8.0 22.5 0.00 0.00 0.00 83 1006.8
20260506114555 15 229 4.8 16.1 0.00 0.00 0.00 84 1006.8
20260506113049 14 196 8.0 27.4 0.00 0.00 0.00 85 1007.1
20260506111544 14 154 11.3 22.5 0.00 0.00 0.00 86 1007.3
20260506110041 13 241 8.0 20.9 0.00 0.00 0.00 87 1007.2